Location: Daytona Beach
(29.2106°N, 81.0231°W)
Time: 00:48:02
(UTC-04:00)

RS-15 - Pass Details

Date: 02 October 2021
Orbit: 1884 x 2160 km, 64.8° (Epoch: 24 October)

Event Time Altitude Azimuth Distance (km) Brightness Sun altitude
Rises 23:07:25 0° 338° (NNW) 5,634 10.9 -51.0°
Reaches altitude 10° 23:11:28 10° 348° (NNW) 4,653 10.3 -51.7°
Enters shadow 23:17:46 27° 15° (NNE) 3,455 9.3 -52.8°
